#timestamp,LO_Frequency,Hit,StdDev 
1543604415.4,286047019.8,N
1543604435.2,286047020.3,N
1543604455.1,286047017.6,N
1543604456.0,286047017.6,N
1543604475.8,286047020.3,Y
1543604495.6,286047005.4,P
1543604515.5,286047005.4,N
1543604535.3,286047006.7,N
1543604555.1,286047006.7,N
1543604575.9,286047007.0,N
1543604595.7,286047008.1,N
1543604615.6,286047012.1,Y
1543604635.4,286047002.7,P
1543604655.2,286046998.4,N
1543604675.1,286046999.4,N
1543604676.0,286046999.4,N
1543604695.8,286046995.0,N
1543604715.7,286046994.3,N
1543604735.5,286046991.9,N
1543604755.3,286046991.6,N
1543604775.2,286046989.4,N
1543604795.0,286046989.8,N
1543604795.9,286046989.8,N
1543604815.8,286046987.6,N
1543604835.6,286046985.8,N
1543604855.4,286046986.8,N
1543604875.3,286046984.9,N
1543604895.1,286046984.9,N
1543604915.8,286046982.2,N
1543604935.7,286046983.6,N
1543604955.5,286046982.9,N
1543604975.4,286046983.5,N
1543604995.2,286046981.3,N
1543605015.0,286046980.6,N
1543605015.9,286046980.6,N
1543605035.8,286046982.3,N
1543605055.6,286046982.8,N
1543605075.4,286046985.6,N
1543605095.3,286046985.5,N
1543605115.1,286046985.8,N
1543605135.9,286046992.3,N
1543605155.7,286046998.9,N
1543605175.5,286047005.9,N
1543605195.4,286047006.4,N
1543605215.2,286047006.9,N
1543605235.0,286047004.1,N
1543605235.9,286047004.1,N
1543605255.8,286047002.6,N
1543605275.6,286046998.8,N
1543605295.5,286046997.6,N
1543605315.3,286046996.0,N
1543605335.1,286046992.7,N
1543605355.9,286046992.8,N
1543605375.7,286046990.8,N
1543605395.5,286046991.5,N
1543605415.4,286046989.6,N
1543605435.2,286046989.5,N
1543605455.0,286046985.7,N
1543605456.0,286046985.7,N
1543605475.8,286046986.1,N
1543605495.6,286046986.4,N
1543605515.5,286046984.7,N
1543605535.3,286046985.1,N
1543605555.1,286046982.7,N
1543605575.9,286046983.5,N
1543605595.7,286046981.3,N
1543605615.6,286046981.9,N
1543605635.4,286046980.0,N
1543605655.2,286046979.9,N
1543605675.1,286046980.1,N
1543605676.0,286046980.1,N
1543605695.8,286046978.9,N
1543605715.6,286046985.1,N
1543605735.5,286046984.5,N
1543605755.3,286046987.0,N
1543605775.2,286046991.9,N
1543605795.9,286046997.9,N
1543605815.7,286046999.0,N
1543605835.6,286046998.1,N
1543605855.4,286047000.5,N
1543605875.2,286047005.0,N
1543605895.1,286047008.1,N
1543605896.0,286047008.1,N
1543605915.8,286047008.2,N
1543605935.7,286047006.6,N
1543605955.5,286047010.3,N
1543605975.3,286047013.7,N
1543605995.2,286047016.9,N
1543606015.9,286047016.3,N
1543606035.7,286047014.1,N
1543606055.6,286047013.3,N
1543606075.4,286047009.4,N
1543606095.2,286047008.0,N
1543606115.1,286047012.2,N
1543606116.0,286047012.2,N
1543606135.8,286047014.4,N
1543606155.7,286047014.6,N
1543606205.5,286047015.1,E
1543606215.5,286047006.3,N
1543606235.3,286047001.1,P
1543606255.1,286047000.3,N
1543606275.9,286047002.3,N
1543606325.7,286047000.9,E
1543606335.6,286047000.9,N
1543606355.5,286046999.8,P
1543606375.3,286047000.5,N
1543606395.1,286046999.8,N
1543606415.9,286047005.4,Y
1543606435.7,286047003.6,P
1543606455.6,286047001.9,N
1543606475.4,286046998.5,N
1543606495.2,286046997.9,N
1543606515.1,286046996.0,N
1543606516.0,286046996.0,N
1543606535.8,286046995.3,N
1543606555.6,286046995.9,N
1543606575.5,286046993.7,N
1543606595.3,286046994.3,N
1543606615.2,286046992.6,N
1543606635.9,286046991.1,N
1543606655.7,286046990.0,N
1543606675.6,286046987.8,Y
1543606695.4,286046988.5,P
1543606715.2,286046988.9,N
1543606735.1,286046987.5,P
1543606736.0,286046987.5,Y
1543606755.8,286046995.0,P
1543606775.7,286046994.2,N
1543606795.5,286046992.1,P
1543606815.3,286046990.1,Y
1543606835.2,286046997.6,P
1543606855.0,286046993.3,N
1543606855.9,286046993.3,P
1543606875.8,286046996.4,N
1543606895.6,286046993.9,Y
1543606915.4,286046998.9,P
1543606935.3,286046999.4,N
1543606955.1,286046997.4,N
1543606975.8,286046995.3,N
1543606995.7,286046998.0,N
1543607015.5,286046997.3,N
1543607035.4,286046998.0,N
1543607055.2,286046995.4,Y
1543607075.0,286046999.0,P
1543607075.9,286046999.0,N
1543607095.8,286046996.8,P
1543607115.6,286046995.0,Y
1543607135.5,286046999.0,P
1543607155.3,286046997.4,P
1543607175.1,286046998.0,P
1543607195.9,286046997.8,Y
1543607215.7,286046998.5,P
1543607235.5,286047003.2,P
1543607255.4,286047008.7,P
1543607275.2,286047012.2,N
1543607295.1,286047011.8,N
1543607296.0,286047011.8,N
1543607315.8,286047014.0,N
1543607335.6,286047011.8,N
1543607355.5,286047010.0,N
1543607375.3,286047013.8,N
1543607395.1,286047015.8,N
1543607415.9,286047021.4,Y
1543607435.7,286047009.4,P
1543607455.6,286047010.4,P
1543607475.4,286047010.1,P
1543607495.2,286047008.1,Y
1543607515.1,286046997.3,P
1543607516.0,286046997.3,N
1543607535.8,286046996.5,N
1543607555.6,286047002.3,N
1543607575.5,286047004.2,N
1543607595.3,286047002.0,N
1543607615.2,286047005.3,N
1543607635.9,286047006.4,N
1543607655.7,286047008.6,N
1543607675.6,286047005.2,N
1543607695.4,286047003.6,N
1543607715.2,286047001.5,N
1543607735.1,286047004.1,N
1543607736.0,286047004.1,N
1543607755.8,286047005.0,N
1543607775.7,286047007.1,N
1543607795.5,286047006.8,N
1543607815.3,286047006.3,N
1543607835.2,286047013.5,Y
1543607855.0,286047012.3,P
1543607855.9,286047012.3,N
1543607875.7,286047012.2,P
1543607895.6,286047007.7,N
1543607915.4,286047004.9,N
1543607935.3,286047002.1,N
1543607955.1,286046999.4,N
1543607956.0,286046999.4,N
1543607975.8,286046995.8,N
1543607995.7,286046992.2,N
